Date,TemperatureHighF,TemperatureAvgF,TemperatureLowF,DewpointHighF,DewpointAvgF,DewpointLowF,HumidityHigh,HumidityAvg,HumidityLow,PressureMaxIn,PressureMinIn,WindSpeedMaxMPH,WindSpeedAvgMPH,GustSpeedMaxMPH,PrecipitationSumIn
2013-2-1,68,53,43,43,34,29,79,51,33,29.18,29.03,1,1,0,0.00
2013-2-2,72,56,46,52,46,40,93,73,42,29.06,28.94,1,1,0,0.00
2013-2-3,74,61,41,56,52,32,95,74,38,29.97,28.94,1,1,0,0.00
2013-2-4,69,60,55,58,54,48,96,82,52,29.15,29.06,1,1,0,0.00
2013-2-5,71,58,51,56,49,43,94,73,45,29.15,29.00,1,1,0,0.00
2013-2-6,73,56,49,53,48,44,91,74,44,29.00,28.82,1,1,0,0.00
2013-2-7,67,55,50,52,48,42,98,77,47,28.85,28.68,1,1,0,0.00
2013-2-8,66,52,46,50,43,37,98,72,43,28.88,28.68,1,1,0,0.00
2013-2-9,68,52,44,43,40,35,86,64,36,29.03,28.88,1,1,0,0.00
2013-2-10,70,53,41,44,38,32,81,60,34,29.97,28.94,1,1,0,0.00
2013-2-11,67,50,44,40,34,30,83,57,35,29.18,28.91,2,1,8,0.91
2013-2-12,70,52,42,47,40,32,82,64,36,29.18,29.15,4,0,5,0.00
2013-2-13,55,51,46,50,47,44,98,89,68,29.15,29.00,5,1,8,0.96
2013-2-14,51,48,46,51,48,46,98,97,94,29.06,28.82,3,0,5,0.58
2013-2-15,57,48,44,49,45,42,98,91,67,29.15,28.82,6,1,10,0.36
2013-2-16,61,50,41,47,44,32,98,82,38,29.97,29.15,3,0,4,0.40
2013-2-17,47,45,42,47,43,38,98,92,82,29.18,29.06,7,1,14,0.47
2013-2-18,63,48,41,41,38,33,87,68,41,29.21,29.15,5,1,8,0.00
2013-2-19,62,50,44,55,44,-100,98,84,60,29.18,28.91,3,0,6,0.16
2013-2-20,69,51,41,45,39,32,93,67,34,29.97,28.97,4,0,6,0.00
2013-2-21,56,51,46,52,44,40,98,79,68,29.18,28.85,3,0,6,0.05
2013-2-22,60,52,41,59,52,32,98,97,38,28.88,28.74,4,1,6,0.03
2013-2-23,74,56,48,59,49,44,98,80,40,29.18,28.88,3,0,4,0.00
2013-2-24,73,60,51,58,51,44,98,77,39,29.24,29.15,4,1,6,0.00
2013-2-25,70,60,54,57,54,50,98,82,53,29.24,29.12,4,1,8,0.00
2013-2-26,76,61,51,57,48,37,96,67,33,29.21,29.12,3,0,6,0.00
2013-2-27,71,55,41,46,40,32,80,60,32,29.97,29.06,4,1,6,0.00
2013-2-28,61,50,46,43,40,37,85,69,47,29.33,29.18,6,1,8,0.00